owner,sensor,date,latitude,longitude,relative_humidity,qcFlag 
COMPS,ioos:station:USF.COMPS:FHP:1,2017-11-01T00:24:00Z,28.1530,-82.8010,99.58,1111122 
COMPS,ioos:station:USF.COMPS:FHP:1,2017-11-01T00:30:00Z,28.1530,-82.8010,95.87,1111122 
COMPS,ioos:station:USF.COMPS:FHP:1,2017-11-01T00:36:00Z,28.1530,-82.8010,95.51,1111122 
COMPS,ioos:station:USF.COMPS:FHP:1,2017-11-01T00:42:00Z,28.1530,-82.8010,81.41,1111122 
COMPS,ioos:station:USF.COMPS:FHP:1,2017-11-01T00:48:00Z,28.1530,-82.8010,76.54,1111122 
COMPS,ioos:station:USF.COMPS:FHP:1,2017-11-01T00:54:00Z,28.1530,-82.8010,68.31,1111122 
COMPS,ioos:station:USF.COMPS:FHP:1,2017-11-01T01:00:00Z,28.1530,-82.8010,76.68,1111122 
COMPS,ioos:station:USF.COMPS:FHP:1,2017-11-01T01:06:00Z,28.1530,-82.8010,95.31,1111122 
COMPS,ioos:station:USF.COMPS:FHP:1,2017-11-01T01:18:00Z,28.1530,-82.8010,99.78,1111122 
COMPS,ioos:station:USF.COMPS:FHP:1,2017-11-01T01:24:00Z,28.1530,-82.8010,99.98,1111122 
COMPS,ioos:station:USF.COMPS:FHP:1,2017-11-01T01:48:00Z,28.1530,-82.8010,99.89,1111122 
COMPS,ioos:station:USF.COMPS:FHP:1,2017-11-01T02:24:00Z,28.1530,-82.8010,86.09,1111122 
COMPS,ioos:station:USF.COMPS:FHP:1,2017-11-01T02:30:00Z,28.1530,-82.8010,68.81,1111122 
COMPS,ioos:station:USF.COMPS:FHP:1,2017-11-01T02:36:00Z,28.1530,-82.8010,67.65,1111122 
COMPS,ioos:station:USF.COMPS:FHP:1,2017-11-01T02:42:00Z,28.1530,-82.8010,68.5,1111122 
COMPS,ioos:station:USF.COMPS:FHP:1,2017-11-01T02:48:00Z,28.1530,-82.8010,71.09,1111122 
COMPS,ioos:station:USF.COMPS:FHP:1,2017-11-01T02:54:00Z,28.1530,-82.8010,80.84,1111122 
COMPS,ioos:station:USF.COMPS:FHP:1,2017-11-01T03:00:00Z,28.1530,-82.8010,89.43,1111122 
COMPS,ioos:station:USF.COMPS:FHP:1,2017-11-01T03:06:00Z,28.1530,-82.8010,81.7,1111122 
COMPS,ioos:station:USF.COMPS:FHP:1,2017-11-01T03:12:00Z,28.1530,-82.8010,72.57,1111122 
COMPS,ioos:station:USF.COMPS:FHP:1,2017-11-01T03:18:00Z,28.1530,-82.8010,70.72,1111122 
COMPS,ioos:station:USF.COMPS:FHP:1,2017-11-01T03:24:00Z,28.1530,-82.8010,68.97,1111122 
COMPS,ioos:station:USF.COMPS:FHP:1,2017-11-01T03:30:00Z,28.1530,-82.8010,66.14,1111122 
COMPS,ioos:station:USF.COMPS:FHP:1,2017-11-01T03:36:00Z,28.1530,-82.8010,65.5,1111122 
COMPS,ioos:station:USF.COMPS:FHP:1,2017-11-01T03:42:00Z,28.1530,-82.8010,65.09,1111122 
COMPS,ioos:station:USF.COMPS:FHP:1,2017-11-01T03:48:00Z,28.1530,-82.8010,64.02,1111122 
COMPS,ioos:station:USF.COMPS:FHP:1,2017-11-01T03:54:00Z,28.1530,-82.8010,64.07,1111122 
COMPS,ioos:station:USF.COMPS:FHP:1,2017-11-01T04:00:00Z,28.1530,-82.8010,63.62,1111122 
COMPS,ioos:station:USF.COMPS:FHP:1,2017-11-01T04:06:00Z,28.1530,-82.8010,63.98,1111122 
COMPS,ioos:station:USF.COMPS:FHP:1,2017-11-01T04:12:00Z,28.1530,-82.8010,64.72,1111122 
COMPS,ioos:station:USF.COMPS:FHP:1,2017-11-01T04:18:00Z,28.1530,-82.8010,66.38,1111122 
COMPS,ioos:station:USF.COMPS:FHP:1,2017-11-01T04:24:00Z,28.1530,-82.8010,67.55,1111122 
COMPS,ioos:station:USF.COMPS:FHP:1,2017-11-01T04:30:00Z,28.1530,-82.8010,67.98,1111122 
COMPS,ioos:station:USF.COMPS:FHP:1,2017-11-01T04:36:00Z,28.1530,-82.8010,70.71,1111122 
COMPS,ioos:station:USF.COMPS:FHP:1,2017-11-01T04:42:00Z,28.1530,-82.8010,71.09,1111122 
COMPS,ioos:station:USF.COMPS:FHP:1,2017-11-01T04:48:00Z,28.1530,-82.8010,71.3,1111122 
COMPS,ioos:station:USF.COMPS:FHP:1,2017-11-01T04:54:00Z,28.1530,-82.8010,72.73,1111122 
COMPS,ioos:station:USF.COMPS:FHP:1,2017-11-01T05:00:00Z,28.1530,-82.8010,70.78,1111122 
COMPS,ioos:station:USF.COMPS:FHP:1,2017-11-01T05:06:00Z,28.1530,-82.8010,70.65,1111122 
COMPS,ioos:station:USF.COMPS:FHP:1,2017-11-01T05:12:00Z,28.1530,-82.8010,73.26,1111122 
COMPS,ioos:station:USF.COMPS:FHP:1,2017-11-01T05:18:00Z,28.1530,-82.8010,74.06,1111122 
COMPS,ioos:station:USF.COMPS:FHP:1,2017-11-01T05:24:00Z,28.1530,-82.8010,75.26,1111122 
COMPS,ioos:station:USF.COMPS:FHP:1,2017-11-01T05:30:00Z,28.1530,-82.8010,75.64,1111122 
COMPS,ioos:station:USF.COMPS:FHP:1,2017-11-01T05:36:00Z,28.1530,-82.8010,80.71,1111122 
COMPS,ioos:station:USF.COMPS:FHP:1,2017-11-01T05:42:00Z,28.1530,-82.8010,88.61,1111122 
COMPS,ioos:station:USF.COMPS:FHP:1,2017-11-01T05:48:00Z,28.1530,-82.8010,86.26,1111122 
COMPS,ioos:station:USF.COMPS:FHP:1,2017-11-01T05:54:00Z,28.1530,-82.8010,97.29,1111122 
COMPS,ioos:station:USF.COMPS:FHP:1,2017-11-01T06:00:00Z,28.1530,-82.8010,97.56,1111122 
COMPS,ioos:station:USF.COMPS:FHP:1,2017-11-01T06:54:00Z,28.1530,-82.8010,98.23,1111122 
COMPS,ioos:station:USF.COMPS:FHP:1,2017-11-01T07:00:00Z,28.1530,-82.8010,96.25,1111122 
COMPS,ioos:station:USF.COMPS:FHP:1,2017-11-01T07:06:00Z,28.1530,-82.8010,98.53,1111122 
COMPS,ioos:station:USF.COMPS:FHP:1,2017-11-01T07:12:00Z,28.1530,-82.8010,96.34,1111122 
COMPS,ioos:station:USF.COMPS:FHP:1,2017-11-01T07:18:00Z,28.1530,-82.8010,96.41,1111122 
COMPS,ioos:station:USF.COMPS:FHP:1,2017-11-01T07:24:00Z,28.1530,-82.8010,99.72,1111122 
COMPS,ioos:station:USF.COMPS:FHP:1,2017-11-01T07:48:00Z,28.1530,-82.8010,99.99,1111122 
COMPS,ioos:station:USF.COMPS:FHP:1,2017-11-01T08:42:00Z,28.1530,-82.8010,99.85,1111122 
COMPS,ioos:station:USF.COMPS:FHP:1,2017-11-01T08:48:00Z,28.1530,-82.8010,99.39,1111122 
COMPS,ioos:station:USF.COMPS:FHP:1,2017-11-01T11:18:00Z,28.1530,-82.8010,82.24,1111122 
COMPS,ioos:station:USF.COMPS:FHP:1,2017-11-01T11:24:00Z,28.1530,-82.8010,76.49,1111122 
COMPS,ioos:station:USF.COMPS:FHP:1,2017-11-01T11:30:00Z,28.1530,-82.8010,88.71,1111122 
COMPS,ioos:station:USF.COMPS:FHP:1,2017-11-01T11:36:00Z,28.1530,-82.8010,88.5,1111122 
COMPS,ioos:station:USF.COMPS:FHP:1,2017-11-01T11:42:00Z,28.1530,-82.8010,93.92,1111122 
COMPS,ioos:station:USF.COMPS:FHP:1,2017-11-01T11:48:00Z,28.1530,-82.8010,83.16,1111122 
COMPS,ioos:station:USF.COMPS:FHP:1,2017-11-01T11:54:00Z,28.1530,-82.8010,87.57,1111122 
COMPS,ioos:station:USF.COMPS:FHP:1,2017-11-01T12:00:00Z,28.1530,-82.8010,99.3,1111122 
COMPS,ioos:station:USF.COMPS:FHP:1,2017-11-01T13:12:00Z,28.1530,-82.8010,95.12,1111122 
COMPS,ioos:station:USF.COMPS:FHP:1,2017-11-01T13:18:00Z,28.1530,-82.8010,95.98,1111122 
COMPS,ioos:station:USF.COMPS:FHP:1,2017-11-01T13:24:00Z,28.1530,-82.8010,87.75,1111122 
COMPS,ioos:station:USF.COMPS:FHP:1,2017-11-01T13:30:00Z,28.1530,-82.8010,81.38,1111122 
COMPS,ioos:station:USF.COMPS:FHP:1,2017-11-01T13:36:00Z,28.1530,-82.8010,80.41,1111122 
COMPS,ioos:station:USF.COMPS:FHP:1,2017-11-01T13:42:00Z,28.1530,-82.8010,79.86,1111122 
COMPS,ioos:station:USF.COMPS:FHP:1,2017-11-01T13:48:00Z,28.1530,-82.8010,78.29,1111122 
COMPS,ioos:station:USF.COMPS:FHP:1,2017-11-01T13:54:00Z,28.1530,-82.8010,75.32,1111122 
COMPS,ioos:station:USF.COMPS:FHP:1,2017-11-01T14:00:00Z,28.1530,-82.8010,75.53,1111122 
COMPS,ioos:station:USF.COMPS:FHP:1,2017-11-01T14:06:00Z,28.1530,-82.8010,74.31,1111122 
COMPS,ioos:station:USF.COMPS:FHP:1,2017-11-01T14:12:00Z,28.1530,-82.8010,73.59,1111122 
COMPS,ioos:station:USF.COMPS:FHP:1,2017-11-01T14:18:00Z,28.1530,-82.8010,70.92,1111122 
COMPS,ioos:station:USF.COMPS:FHP:1,2017-11-01T14:24:00Z,28.1530,-82.8010,67.25,1111122 
COMPS,ioos:station:USF.COMPS:FHP:1,2017-11-01T14:30:00Z,28.1530,-82.8010,66.09,1111122 
COMPS,ioos:station:USF.COMPS:FHP:1,2017-11-01T14:36:00Z,28.1530,-82.8010,64.46,1111122 
COMPS,ioos:station:USF.COMPS:FHP:1,2017-11-01T14:42:00Z,28.1530,-82.8010,63.45,1111122 
COMPS,ioos:station:USF.COMPS:FHP:1,2017-11-01T14:48:00Z,28.1530,-82.8010,63.09,1111122 
COMPS,ioos:station:USF.COMPS:FHP:1,2017-11-01T14:54:00Z,28.1530,-82.8010,63.95,1111122 
COMPS,ioos:station:USF.COMPS:FHP:1,2017-11-01T15:00:00Z,28.1530,-82.8010,62.43,1111122 
COMPS,ioos:station:USF.COMPS:FHP:1,2017-11-01T15:06:00Z,28.1530,-82.8010,62.48,1111122 
COMPS,ioos:station:USF.COMPS:FHP:1,2017-11-01T15:12:00Z,28.1530,-82.8010,63.1,1111122 
COMPS,ioos:station:USF.COMPS:FHP:1,2017-11-01T15:18:00Z,28.1530,-82.8010,62.77,1111122 
COMPS,ioos:station:USF.COMPS:FHP:1,2017-11-01T15:24:00Z,28.1530,-82.8010,60.28,1111122 
COMPS,ioos:station:USF.COMPS:FHP:1,2017-11-01T15:30:00Z,28.1530,-82.8010,61.7,1111122 
COMPS,ioos:station:USF.COMPS:FHP:1,2017-11-01T15:36:00Z,28.1530,-82.8010,57.32,1111122 
COMPS,ioos:station:USF.COMPS:FHP:1,2017-11-01T15:42:00Z,28.1530,-82.8010,58.95,1111122 
COMPS,ioos:station:USF.COMPS:FHP:1,2017-11-01T15:48:00Z,28.1530,-82.8010,59.44,1111122 
COMPS,ioos:station:USF.COMPS:FHP:1,2017-11-01T15:54:00Z,28.1530,-82.8010,56.46,1111122 
COMPS,ioos:station:USF.COMPS:FHP:1,2017-11-01T16:00:00Z,28.1530,-82.8010,57.52,1111122 
COMPS,ioos:station:USF.COMPS:FHP:1,2017-11-01T16:06:00Z,28.1530,-82.8010,60.88,1111122 
COMPS,ioos:station:USF.COMPS:FHP:1,2017-11-01T16:12:00Z,28.1530,-82.8010,58.3,1111122 
COMPS,ioos:station:USF.COMPS:FHP:1,2017-11-01T16:18:00Z,28.1530,-82.8010,54.4,1111122 
COMPS,ioos:station:USF.COMPS:FHP:1,2017-11-01T16:24:00Z,28.1530,-82.8010,54.72,1111122 
COMPS,ioos:station:USF.COMPS:FHP:1,2017-11-01T16:30:00Z,28.1530,-82.8010,54.94,1111122 
COMPS,ioos:station:USF.COMPS:FHP:1,2017-11-01T16:36:00Z,28.1530,-82.8010,57.34,1111122 
COMPS,ioos:station:USF.COMPS:FHP:1,2017-11-01T16:42:00Z,28.1530,-82.8010,51.48,1111122 
COMPS,ioos:station:USF.COMPS:FHP:1,2017-11-01T16:48:00Z,28.1530,-82.8010,50.8,1111122 
COMPS,ioos:station:USF.COMPS:FHP:1,2017-11-01T16:54:00Z,28.1530,-82.8010,49.68,1111122 
COMPS,ioos:station:USF.COMPS:FHP:1,2017-11-01T17:00:00Z,28.1530,-82.8010,49.43,1111122 
COMPS,ioos:station:USF.COMPS:FHP:1,2017-11-01T17:06:00Z,28.1530,-82.8010,49.07,1111122 
COMPS,ioos:station:USF.COMPS:FHP:1,2017-11-01T17:12:00Z,28.1530,-82.8010,50.61,1111122 
COMPS,ioos:station:USF.COMPS:FHP:1,2017-11-01T17:18:00Z,28.1530,-82.8010,50.03,1111122 
COMPS,ioos:station:USF.COMPS:FHP:1,2017-11-01T17:24:00Z,28.1530,-82.8010,50.78,1111122 
COMPS,ioos:station:USF.COMPS:FHP:1,2017-11-01T17:30:00Z,28.1530,-82.8010,50.82,1111122 
COMPS,ioos:station:USF.COMPS:FHP:1,2017-11-01T17:36:00Z,28.1530,-82.8010,48.51,1111122 
COMPS,ioos:station:USF.COMPS:FHP:1,2017-11-01T17:42:00Z,28.1530,-82.8010,48.88,1111122 
COMPS,ioos:station:USF.COMPS:FHP:1,2017-11-01T17:48:00Z,28.1530,-82.8010,51.45,1111122 
COMPS,ioos:station:USF.COMPS:FHP:1,2017-11-01T17:54:00Z,28.1530,-82.8010,53.01,1111122 
COMPS,ioos:station:USF.COMPS:FHP:1,2017-11-01T18:00:00Z,28.1530,-82.8010,53.85,1111122 
COMPS,ioos:station:USF.COMPS:FHP:1,2017-11-01T18:06:00Z,28.1530,-82.8010,98.42,1111122 
COMPS,ioos:station:USF.COMPS:FHP:1,2017-11-01T18:12:00Z,28.1530,-82.8010,95.94,1111122 
COMPS,ioos:station:USF.COMPS:FHP:1,2017-11-01T18:36:00Z,28.1530,-82.8010,95.7,1111122 
COMPS,ioos:station:USF.COMPS:FHP:1,2017-11-01T19:00:00Z,28.1530,-82.8010,97.48,1111122 
COMPS,ioos:station:USF.COMPS:FHP:1,2017-11-01T19:30:00Z,28.1530,-82.8010,92.61,1111122 
COMPS,ioos:station:USF.COMPS:FHP:1,2017-11-01T19:36:00Z,28.1530,-82.8010,75.64,1111122 
COMPS,ioos:station:USF.COMPS:FHP:1,2017-11-01T19:42:00Z,28.1530,-82.8010,93.68,1111122 
COMPS,ioos:station:USF.COMPS:FHP:1,2017-11-01T19:48:00Z,28.1530,-82.8010,80.45,1111122 
COMPS,ioos:station:USF.COMPS:FHP:1,2017-11-01T19:54:00Z,28.1530,-82.8010,81.69,1111122 
COMPS,ioos:station:USF.COMPS:FHP:1,2017-11-01T20:00:00Z,28.1530,-82.8010,72.43,1111122 
COMPS,ioos:station:USF.COMPS:FHP:1,2017-11-01T20:06:00Z,28.1530,-82.8010,71.74,1111122 
COMPS,ioos:station:USF.COMPS:FHP:1,2017-11-01T20:12:00Z,28.1530,-82.8010,93.7,1111122 
COMPS,ioos:station:USF.COMPS:FHP:1,2017-11-01T20:18:00Z,28.1530,-82.8010,99.82,1111122 
COMPS,ioos:station:USF.COMPS:FHP:1,2017-11-01T20:48:00Z,28.1530,-82.8010,92.9,1111122 
COMPS,ioos:station:USF.COMPS:FHP:1,2017-11-01T20:54:00Z,28.1530,-82.8010,99.6,1111122 
COMPS,ioos:station:USF.COMPS:FHP:1,2017-11-01T21:00:00Z,28.1530,-82.8010,86.36,1111122 
COMPS,ioos:station:USF.COMPS:FHP:1,2017-11-01T21:06:00Z,28.1530,-82.8010,96.85,1111122 
COMPS,ioos:station:USF.COMPS:FHP:1,2017-11-01T21:12:00Z,28.1530,-82.8010,99.06,1111122 
COMPS,ioos:station:USF.COMPS:FHP:1,2017-11-01T21:30:00Z,28.1530,-82.8010,99.95,1111122 
COMPS,ioos:station:USF.COMPS:FHP:1,2017-11-01T21:36:00Z,28.1530,-82.8010,89.06,1111122 
COMPS,ioos:station:USF.COMPS:FHP:1,2017-11-01T22:06:00Z,28.1530,-82.8010,98.89,1111122 
COMPS,ioos:station:USF.COMPS:FHP:1,2017-11-01T22:36:00Z,28.1530,-82.8010,95.41,1111122 
COMPS,ioos:station:USF.COMPS:FHP:1,2017-11-01T22:42:00Z,28.1530,-82.8010,99.17,1111122 
COMPS,ioos:station:USF.COMPS:FHP:1,2017-11-01T22:48:00Z,28.1530,-82.8010,95.72,1111122 
COMPS,ioos:station:USF.COMPS:FHP:1,2017-11-01T22:54:00Z,28.1530,-82.8010,99.81,1111122 
COMPS,ioos:station:USF.COMPS:FHP:1,2017-11-01T23:06:00Z,28.1530,-82.8010,63.61,1111122 
COMPS,ioos:station:USF.COMPS:FHP:1,2017-11-02T00:36:00Z,28.1530,-82.8010,25.58,1111122 
COMPS,ioos:station:USF.COMPS:FHP:1,2017-11-02T01:06:00Z,28.1530,-82.8010,8.59,1111122 
COMPS,ioos:station:USF.COMPS:FHP:1,2017-11-02T01:42:00Z,28.1530,-82.8010,99.3,1111122 
COMPS,ioos:station:USF.COMPS:FHP:1,2017-11-02T02:00:00Z,28.1530,-82.8010,97.99,1111122 
COMPS,ioos:station:USF.COMPS:FHP:1,2017-11-02T02:36:00Z,28.1530,-82.8010,99.65,1111122 
COMPS,ioos:station:USF.COMPS:FHP:1,2017-11-02T02:42:00Z,28.1530,-82.8010,99.67,1111122 
COMPS,ioos:station:USF.COMPS:FHP:1,2017-11-02T04:06:00Z,28.1530,-82.8010,99.48,1111122 
COMPS,ioos:station:USF.COMPS:FHP:1,2017-11-02T04:12:00Z,28.1530,-82.8010,96.04,1111122 
COMPS,ioos:station:USF.COMPS:FHP:1,2017-11-02T04:18:00Z,28.1530,-82.8010,97.9,1111122 
COMPS,ioos:station:USF.COMPS:FHP:1,2017-11-02T04:24:00Z,28.1530,-82.8010,97.54,1111122 
COMPS,ioos:station:USF.COMPS:FHP:1,2017-11-02T04:30:00Z,28.1530,-82.8010,81.15,1111122 
COMPS,ioos:station:USF.COMPS:FHP:1,2017-11-02T04:36:00Z,28.1530,-82.8010,79.89,1111122 
COMPS,ioos:station:USF.COMPS:FHP:1,2017-11-02T04:42:00Z,28.1530,-82.8010,81.2,1111122 
COMPS,ioos:station:USF.COMPS:FHP:1,2017-11-02T04:48:00Z,28.1530,-82.8010,83.44,1111122 
COMPS,ioos:station:USF.COMPS:FHP:1,2017-11-02T04:54:00Z,28.1530,-82.8010,84.39,1111122 
COMPS,ioos:station:USF.COMPS:FHP:1,2017-11-02T05:00:00Z,28.1530,-82.8010,88.36,1111122 
COMPS,ioos:station:USF.COMPS:FHP:1,2017-11-02T05:06:00Z,28.1530,-82.8010,93.16,1111122 
COMPS,ioos:station:USF.COMPS:FHP:1,2017-11-02T05:12:00Z,28.1530,-82.8010,93.88,1111122 
COMPS,ioos:station:USF.COMPS:FHP:1,2017-11-02T05:18:00Z,28.1530,-82.8010,96.15,1111122 
COMPS,ioos:station:USF.COMPS:FHP:1,2017-11-02T05:24:00Z,28.1530,-82.8010,95.63,1111122 
COMPS,ioos:station:USF.COMPS:FHP:1,2017-11-02T05:30:00Z,28.1530,-82.8010,95.49,1111122 
COMPS,ioos:station:USF.COMPS:FHP:1,2017-11-02T05:36:00Z,28.1530,-82.8010,96.35,1111122 
COMPS,ioos:station:USF.COMPS:FHP:1,2017-11-02T05:42:00Z,28.1530,-82.8010,93.81,1111122 
COMPS,ioos:station:USF.COMPS:FHP:1,2017-11-02T05:48:00Z,28.1530,-82.8010,92.93,1111122 
COMPS,ioos:station:USF.COMPS:FHP:1,2017-11-02T05:54:00Z,28.1530,-82.8010,94.17,1111122 
COMPS,ioos:station:USF.COMPS:FHP:1,2017-11-02T06:00:00Z,28.1530,-82.8010,96.72,1111122 
COMPS,ioos:station:USF.COMPS:FHP:1,2017-11-02T06:06:00Z,28.1530,-82.8010,97.19,1111122 
COMPS,ioos:station:USF.COMPS:FHP:1,2017-11-02T06:12:00Z,28.1530,-82.8010,97.45,1111122 
COMPS,ioos:station:USF.COMPS:FHP:1,2017-11-02T07:06:00Z,28.1530,-82.8010,99.79,1111122 
COMPS,ioos:station:USF.COMPS:FHP:1,2017-11-02T08:18:00Z,28.1530,-82.8010,91.87,1111122 
COMPS,ioos:station:USF.COMPS:FHP:1,2017-11-02T08:48:00Z,28.1530,-82.8010,83.87,1111122 
COMPS,ioos:station:USF.COMPS:FHP:1,2017-11-02T10:12:00Z,28.1530,-82.8010,100.0,1111122 
COMPS,ioos:station:USF.COMPS:FHP:1,2017-11-02T10:54:00Z,28.1530,-82.8010,91.87,1111122 
COMPS,ioos:station:USF.COMPS:FHP:1,2017-11-02T12:36:00Z,28.1530,-82.8010,99.38,1111122 
COMPS,ioos:station:USF.COMPS:FHP:1,2017-11-02T12:42:00Z,28.1530,-82.8010,95.13,1111122 
COMPS,ioos:station:USF.COMPS:FHP:1,2017-11-02T12:48:00Z,28.1530,-82.8010,93.02,1111122 
COMPS,ioos:station:USF.COMPS:FHP:1,2017-11-02T12:54:00Z,28.1530,-82.8010,93.82,1111122 
COMPS,ioos:station:USF.COMPS:FHP:1,2017-11-02T13:00:00Z,28.1530,-82.8010,88.27,1111122 
COMPS,ioos:station:USF.COMPS:FHP:1,2017-11-02T13:06:00Z,28.1530,-82.8010,85.75,1111122 
COMPS,ioos:station:USF.COMPS:FHP:1,2017-11-02T13:12:00Z,28.1530,-82.8010,84.83,1111122 
COMPS,ioos:station:USF.COMPS:FHP:1,2017-11-02T13:18:00Z,28.1530,-82.8010,84.74,1111122 
COMPS,ioos:station:USF.COMPS:FHP:1,2017-11-02T13:24:00Z,28.1530,-82.8010,83.89,1111122 
COMPS,ioos:station:USF.COMPS:FHP:1,2017-11-02T13:30:00Z,28.1530,-82.8010,83.42,1111122 
COMPS,ioos:station:USF.COMPS:FHP:1,2017-11-02T13:36:00Z,28.1530,-82.8010,85.87,1111122 
COMPS,ioos:station:USF.COMPS:FHP:1,2017-11-02T13:42:00Z,28.1530,-82.8010,80.22,1111122 
COMPS,ioos:station:USF.COMPS:FHP:1,2017-11-02T13:48:00Z,28.1530,-82.8010,83.07,1111122 
COMPS,ioos:station:USF.COMPS:FHP:1,2017-11-02T13:54:00Z,28.1530,-82.8010,80.5,1111122 
COMPS,ioos:station:USF.COMPS:FHP:1,2017-11-02T14:00:00Z,28.1530,-82.8010,85.34,1111122 
COMPS,ioos:station:USF.COMPS:FHP:1,2017-11-02T14:06:00Z,28.1530,-82.8010,94.47,1111122 
COMPS,ioos:station:USF.COMPS:FHP:1,2017-11-02T14:48:00Z,28.1530,-82.8010,99.77,1111122 
COMPS,ioos:station:USF.COMPS:FHP:1,2017-11-02T16:12:00Z,28.1530,-82.8010,99.59,1111122 
COMPS,ioos:station:USF.COMPS:FHP:1,2017-11-02T17:36:00Z,28.1530,-82.8010,91.99,1111122 
COMPS,ioos:station:USF.COMPS:FHP:1,2017-11-02T17:42:00Z,28.1530,-82.8010,99.13,1111122 
COMPS,ioos:station:USF.COMPS:FHP:1,2017-11-02T17:48:00Z,28.1530,-82.8010,99.79,1111122 
COMPS,ioos:station:USF.COMPS:FHP:1,2017-11-02T19:24:00Z,28.1530,-82.8010,96.84,1111122 
COMPS,ioos:station:USF.COMPS:FHP:1,2017-11-02T19:30:00Z,28.1530,-82.8010,99.75,1111122 
COMPS,ioos:station:USF.COMPS:FHP:1,2017-11-02T19:48:00Z,28.1530,-82.8010,95.09,1111122 
COMPS,ioos:station:USF.COMPS:FHP:1,2017-11-02T19:54:00Z,28.1530,-82.8010,82.13,1111122 
COMPS,ioos:station:USF.COMPS:FHP:1,2017-11-02T20:00:00Z,28.1530,-82.8010,74.94,1111122 
COMPS,ioos:station:USF.COMPS:FHP:1,2017-11-02T20:06:00Z,28.1530,-82.8010,82.44,1111122 
COMPS,ioos:station:USF.COMPS:FHP:1,2017-11-02T20:12:00Z,28.1530,-82.8010,86.27,1111122 
COMPS,ioos:station:USF.COMPS:FHP:1,2017-11-02T20:18:00Z,28.1530,-82.8010,81.04,1111122 
COMPS,ioos:station:USF.COMPS:FHP:1,2017-11-02T21:06:00Z,28.1530,-82.8010,99.47,1111122 
COMPS,ioos:station:USF.COMPS:FHP:1,2017-11-02T21:12:00Z,28.1530,-82.8010,81.56,1111122 
COMPS,ioos:station:USF.COMPS:FHP:1,2017-11-02T21:18:00Z,28.1530,-82.8010,62.23,1111122 
COMPS,ioos:station:USF.COMPS:FHP:1,2017-11-02T21:24:00Z,28.1530,-82.8010,79.16,1111122 
COMPS,ioos:station:USF.COMPS:FHP:1,2017-11-02T21:30:00Z,28.1530,-82.8010,81.46,1111122 
COMPS,ioos:station:USF.COMPS:FHP:1,2017-11-02T21:36:00Z,28.1530,-82.8010,76.4,1111122 
COMPS,ioos:station:USF.COMPS:FHP:1,2017-11-02T21:42:00Z,28.1530,-82.8010,90.56,1111122 
COMPS,ioos:station:USF.COMPS:FHP:1,2017-11-02T21:48:00Z,28.1530,-82.8010,86.03,1111122 
COMPS,ioos:station:USF.COMPS:FHP:1,2017-11-02T21:54:00Z,28.1530,-82.8010,99.87,1111122 
COMPS,ioos:station:USF.COMPS:FHP:1,2017-11-02T22:36:00Z,28.1530,-82.8010,79.03,1111122 
COMPS,ioos:station:USF.COMPS:FHP:1,2017-11-02T23:00:00Z,28.1530,-82.8010,98.51,1111122 
COMPS,ioos:station:USF.COMPS:FHP:1,2017-11-02T23:06:00Z,28.1530,-82.8010,99.98,1111122 
COMPS,ioos:station:USF.COMPS:FHP:1,2017-11-02T23:24:00Z,28.1530,-82.8010,99.79,1111122 
COMPS,ioos:station:USF.COMPS:FHP:1,2017-11-02T23:30:00Z,28.1530,-82.8010,97.47,1111122 
COMPS,ioos:station:USF.COMPS:FHP:1,2017-11-02T23:48:00Z,28.1530,-82.8010,94.31,1111122 
COMPS,ioos:station:USF.COMPS:FHP:1,2017-11-02T23:54:00Z,28.1530,-82.8010,92.34,1111122 
COMPS,ioos:station:USF.COMPS:FHP:1,2017-11-03T00:06:00Z,28.1530,-82.8010,76.37,1111122 
COMPS,ioos:station:USF.COMPS:FHP:1,2017-11-03T00:36:00Z,28.1530,-82.8010,43.54,1111122 
COMPS,ioos:station:USF.COMPS:FHP:1,2017-11-03T00:42:00Z,28.1530,-82.8010,0.4,1111122 
COMPS,ioos:station:USF.COMPS:FHP:1,2017-11-03T00:48:00Z,28.1530,-82.8010,31.29,1111122 
COMPS,ioos:station:USF.COMPS:FHP:1,2017-11-03T00:54:00Z,28.1530,-82.8010,8.18,1111122 
COMPS,ioos:station:USF.COMPS:FHP:1,2017-11-03T01:00:00Z,28.1530,-82.8010,0.4,1111122 
COMPS,ioos:station:USF.COMPS:FHP:1,2017-11-03T01:06:00Z,28.1530,-82.8010,4.0,1111122 
COMPS,ioos:station:USF.COMPS:FHP:1,2017-11-03T01:12:00Z,28.1530,-82.8010,2.2,1111122 
COMPS,ioos:station:USF.COMPS:FHP:1,2017-11-03T01:18:00Z,28.1530,-82.8010,4.0,1111122 
COMPS,ioos:station:USF.COMPS:FHP:1,2017-11-03T01:24:00Z,28.1530,-82.8010,2.21,1111122 
COMPS,ioos:station:USF.COMPS:FHP:1,2017-11-03T01:30:00Z,28.1530,-82.8010,0.4,1111122 
COMPS,ioos:station:USF.COMPS:FHP:1,2017-11-03T01:36:00Z,28.1530,-82.8010,11.48,1111122 
COMPS,ioos:station:USF.COMPS:FHP:1,2017-11-03T01:42:00Z,28.1530,-82.8010,65.05,1111122 
COMPS,ioos:station:USF.COMPS:FHP:1,2017-11-03T01:48:00Z,28.1530,-82.8010,81.34,1111122 
COMPS,ioos:station:USF.COMPS:FHP:1,2017-11-03T01:54:00Z,28.1530,-82.8010,84.29,1111122 
COMPS,ioos:station:USF.COMPS:FHP:1,2017-11-03T02:00:00Z,28.1530,-82.8010,83.33,1111122 
COMPS,ioos:station:USF.COMPS:FHP:1,2017-11-03T02:06:00Z,28.1530,-82.8010,99.11,1111122 
COMPS,ioos:station:USF.COMPS:FHP:1,2017-11-03T02:12:00Z,28.1530,-82.8010,93.32,1111122 
COMPS,ioos:station:USF.COMPS:FHP:1,2017-11-03T02:18:00Z,28.1530,-82.8010,98.65,1111122 
COMPS,ioos:station:USF.COMPS:FHP:1,2017-11-03T02:24:00Z,28.1530,-82.8010,95.23,1111122 
COMPS,ioos:station:USF.COMPS:FHP:1,2017-11-03T02:30:00Z,28.1530,-82.8010,95.56,1111122 
COMPS,ioos:station:USF.COMPS:FHP:1,2017-11-03T02:36:00Z,28.1530,-82.8010,98.19,1111122 
COMPS,ioos:station:USF.COMPS:FHP:1,2017-11-03T02:42:00Z,28.1530,-82.8010,99.72,1111122 
COMPS,ioos:station:USF.COMPS:FHP:1,2017-11-03T02:48:00Z,28.1530,-82.8010,84.7,1111122 
COMPS,ioos:station:USF.COMPS:FHP:1,2017-11-03T02:54:00Z,28.1530,-82.8010,89.42,1111122 
COMPS,ioos:station:USF.COMPS:FHP:1,2017-11-03T03:00:00Z,28.1530,-82.8010,99.63,1111122 
COMPS,ioos:station:USF.COMPS:FHP:1,2017-11-03T03:12:00Z,28.1530,-82.8010,96.77,1111122 
COMPS,ioos:station:USF.COMPS:FHP:1,2017-11-03T03:24:00Z,28.1530,-82.8010,97.04,1111122 
COMPS,ioos:station:USF.COMPS:FHP:1,2017-11-03T03:30:00Z,28.1530,-82.8010,99.82,1111122 
COMPS,ioos:station:USF.COMPS:FHP:1,2017-11-03T03:36:00Z,28.1530,-82.8010,63.5,1111122 
COMPS,ioos:station:USF.COMPS:FHP:1,2017-11-03T03:42:00Z,28.1530,-82.8010,83.51,1111122 
COMPS,ioos:station:USF.COMPS:FHP:1,2017-11-03T03:48:00Z,28.1530,-82.8010,91.43,1111122 
COMPS,ioos:station:USF.COMPS:FHP:1,2017-11-03T03:54:00Z,28.1530,-82.8010,99.85,1111122 
COMPS,ioos:station:USF.COMPS:FHP:1,2017-11-03T04:18:00Z,28.1530,-82.8010,83.89,1111122 
COMPS,ioos:station:USF.COMPS:FHP:1,2017-11-03T05:24:00Z,28.1530,-82.8010,99.87,1111122 
COMPS,ioos:station:USF.COMPS:FHP:1,2017-11-03T07:00:00Z,28.1530,-82.8010,99.86,1111122 
COMPS,ioos:station:USF.COMPS:FHP:1,2017-11-03T07:06:00Z,28.1530,-82.8010,93.94,1111122 
COMPS,ioos:station:USF.COMPS:FHP:1,2017-11-03T07:12:00Z,28.1530,-82.8010,97.25,1111122 
COMPS,ioos:station:USF.COMPS:FHP:1,2017-11-03T07:18:00Z,28.1530,-82.8010,97.29,1111122 
COMPS,ioos:station:USF.COMPS:FHP:1,2017-11-03T07:24:00Z,28.1530,-82.8010,95.0,1111122 
COMPS,ioos:station:USF.COMPS:FHP:1,2017-11-03T07:30:00Z,28.1530,-82.8010,94.04,1111122 
COMPS,ioos:station:USF.COMPS:FHP:1,2017-11-03T07:36:00Z,28.1530,-82.8010,96.46,1111122 
COMPS,ioos:station:USF.COMPS:FHP:1,2017-11-03T07:42:00Z,28.1530,-82.8010,95.03,1111122 
COMPS,ioos:station:USF.COMPS:FHP:1,2017-11-03T07:48:00Z,28.1530,-82.8010,99.27,1111122 
COMPS,ioos:station:USF.COMPS:FHP:1,2017-11-03T07:54:00Z,28.1530,-82.8010,99.05,1111122 
COMPS,ioos:station:USF.COMPS:FHP:1,2017-11-03T08:00:00Z,28.1530,-82.8010,96.02,1111122 
COMPS,ioos:station:USF.COMPS:FHP:1,2017-11-03T08:06:00Z,28.1530,-82.8010,94.69,1111122 
COMPS,ioos:station:USF.COMPS:FHP:1,2017-11-03T08:12:00Z,28.1530,-82.8010,95.89,1111122 
COMPS,ioos:station:USF.COMPS:FHP:1,2017-11-03T08:18:00Z,28.1530,-82.8010,95.44,1111122 
COMPS,ioos:station:USF.COMPS:FHP:1,2017-11-03T08:24:00Z,28.1530,-82.8010,96.0,1111122 
COMPS,ioos:station:USF.COMPS:FHP:1,2017-11-03T08:30:00Z,28.1530,-82.8010,88.17,1111122 
COMPS,ioos:station:USF.COMPS:FHP:1,2017-11-03T08:36:00Z,28.1530,-82.8010,82.43,1111122 
COMPS,ioos:station:USF.COMPS:FHP:1,2017-11-03T08:42:00Z,28.1530,-82.8010,85.04,1111122 
COMPS,ioos:station:USF.COMPS:FHP:1,2017-11-03T08:48:00Z,28.1530,-82.8010,73.59,1111122 